#Datum;Uhrzeit;WR;Pac;DaySum;Status;WR;Pac;DaySum;Status;Pdc1;Udc;Temp;WR;Pac;DaySum;Status;Pdc1;Udc;Temp;WR;Pac;DaySum;Status;Pdc1;Udc;Temp;WR;Pac;DaySum;Status;Pdc1;Pdc2;Udc1;Udc2;Temp;WR;Pac;DaySum;Status;Pdc1;Pdc2;Udc1;Udc2;Temp;WR;Pac;DaySum;Status;Pdc1;Udc;Temp;WR;Pac;DaySum;Status;Pdc1;Udc;Temp;WR;Pac;DaySum;Status;Pdc1;Udc;Temp
28.11.20;23:55:00;1;509;25460;0;2;0;1769;0;0;0;0;3;0;1037;0;0;0;0;4;0;1419;0;0;0;0;5;0;0;0;0;0;0;0;0;6;0;2771;0;0;0;0;0;0;7;0;1785;0;0;0;0;8;0;1805;0;0;0;0;9;0;931;0;0;0;0
28.11.20;23:50:00;1;791;25404;0;2;0;1769;0;0;0;0;3;0;1037;0;0;0;0;4;0;1419;0;0;0;0;5;0;0;0;0;0;0;0;0;6;0;2771;0;0;0;0;0;0;7;0;1785;0;0;0;0;8;0;1805;0;0;0;0;9;0;931;0;0;0;0
28.11.20;23:45:00;1;411;25347;0;2;0;1769;0;0;0;0;3;0;1037;0;0;0;0;4;0;1419;0;0;0;0;5;0;0;0;0;0;0;0;0;6;0;2771;0;0;0;0;0;0;7;0;1785;0;0;0;0;8;0;1805;0;0;0;0;9;0;931;0;0;0;0
28.11.20;23:40:00;1;418;25313;0;2;0;1769;0;0;0;0;3;0;1037;0;0;0;0;4;0;1419;0;0;0;0;5;0;0;0;0;0;0;0;0;6;0;2771;0;0;0;0;0;0;7;0;1785;0;0;0;0;8;0;1805;0;0;0;0;9;0;931;0;0;0;0
28.11.20;23:35:00;1;416;25278;0;2;0;1769;0;0;0;0;3;0;1037;0;0;0;0;4;0;1419;0;0;0;0;5;0;0;0;0;0;0;0;0;6;0;2771;0;0;0;0;0;0;7;0;1785;0;0;0;0;8;0;1805;0;0;0;0;9;0;931;0;0;0;0
28.11.20;23:30:00;1;398;25243;0;2;0;1769;0;0;0;0;3;0;1037;0;0;0;0;4;0;1419;0;0;0;0;5;0;0;0;0;0;0;0;0;6;0;2771;0;0;0;0;0;0;7;0;1785;0;0;0;0;8;0;1805;0;0;0;0;9;0;931;0;0;0;0
28.11.20;23:25:00;1;403;25210;0;2;0;1769;0;0;0;0;3;0;1037;0;0;0;0;4;0;1419;0;0;0;0;5;0;0;0;0;0;0;0;0;6;0;2771;0;0;0;0;0;0;7;0;1785;0;0;0;0;8;0;1805;0;0;0;0;9;0;931;0;0;0;0
28.11.20;23:20:00;1;449;25176;0;2;0;1769;0;0;0;0;3;0;1037;0;0;0;0;4;0;1419;0;0;0;0;5;0;0;0;0;0;0;0;0;6;0;2771;0;0;0;0;0;0;7;0;1785;0;0;0;0;8;0;1805;0;0;0;0;9;0;931;0;0;0;0
28.11.20;23:15:00;1;425;25137;0;2;0;1769;0;0;0;0;3;0;1037;0;0;0;0;4;0;1419;0;0;0;0;5;0;0;0;0;0;0;0;0;6;0;2771;0;0;0;0;0;0;7;0;1785;0;0;0;0;8;0;1805;0;0;0;0;9;0;931;0;0;0;0
28.11.20;23:10:00;1;443;25102;0;2;0;1769;0;0;0;0;3;0;1037;0;0;0;0;4;0;1419;0;0;0;0;5;0;0;0;0;0;0;0;0;6;0;2771;0;0;0;0;0;0;7;0;1785;0;0;0;0;8;0;1805;0;0;0;0;9;0;931;0;0;0;0
28.11.20;23:05:00;1;469;25065;0;2;0;1769;0;0;0;0;3;0;1037;0;0;0;0;4;0;1419;0;0;0;0;5;0;0;0;0;0;0;0;0;6;0;2771;0;0;0;0;0;0;7;0;1785;0;0;0;0;8;0;1805;0;0;0;0;9;0;931;0;0;0;0
28.11.20;23:00:00;1;517;25025;0;2;0;1769;0;0;0;0;3;0;1037;0;0;0;0;4;0;1419;0;0;0;0;5;0;0;0;0;0;0;0;0;6;0;2771;0;0;0;0;0;0;7;0;1785;0;0;0;0;8;0;1805;0;0;0;0;9;0;931;0;0;0;0
28.11.20;22:55:00;1;499;24982;0;2;0;1769;0;0;0;0;3;0;1037;0;0;0;0;4;0;1419;0;0;0;0;5;0;0;0;0;0;0;0;0;6;0;2771;2;0;0;0;0;0;7;0;1785;0;0;0;0;8;0;1805;0;0;0;0;9;0;931;0;0;0;0
28.11.20;22:50:00;1;521;24940;0;2;0;1769;0;0;0;0;3;0;1037;0;0;0;0;4;0;1419;0;0;0;0;5;0;0;0;0;0;0;0;0;6;0;2771;2;0;0;0;0;0;7;0;1785;0;0;0;0;8;0;1805;0;0;0;0;9;0;931;0;0;0;0
28.11.20;22:45:00;1;480;24896;0;2;0;1769;0;0;0;0;3;0;1037;0;0;0;0;4;0;1419;0;0;0;0;5;0;0;0;0;0;0;0;0;6;0;2771;2;0;0;0;0;0;7;0;1785;0;0;0;0;8;0;1805;0;0;0;0;9;0;931;0;0;0;0
28.11.20;22:40:00;1;640;24856;0;2;0;1769;0;0;0;0;3;0;1037;0;0;0;0;4;0;1419;0;0;0;0;5;0;0;0;0;0;0;0;0;6;0;2771;2;0;0;0;0;0;7;0;1785;0;0;0;0;8;0;1805;0;0;0;0;9;0;931;0;0;0;0
28.11.20;22:35:00;1;669;24788;0;2;0;1769;0;0;0;0;3;0;1037;0;0;0;0;4;0;1419;0;0;0;0;5;0;0;0;0;0;0;0;0;6;0;2771;2;0;0;0;0;0;7;0;1785;0;0;0;0;8;0;1805;0;0;0;0;9;0;931;0;0;0;0
28.11.20;22:30:00;1;403;24747;0;2;0;1769;0;0;0;0;3;0;1037;0;0;0;0;4;0;1419;0;0;0;0;5;0;0;0;0;0;0;0;0;6;0;2771;2;0;0;0;0;0;7;0;1785;0;0;0;0;8;0;1805;0;0;0;0;9;0;931;0;0;0;0
28.11.20;22:25:00;1;458;24714;0;2;0;1769;0;0;0;0;3;0;1037;0;0;0;0;4;0;1419;0;0;0;0;5;0;0;0;0;0;0;0;0;6;0;2771;2;0;0;0;0;0;7;0;1785;0;0;0;0;8;0;1805;0;0;0;0;9;0;931;0;0;0;0
28.11.20;22:20:00;1;490;24674;0;2;0;1769;0;0;0;0;3;0;1037;0;0;0;0;4;0;1419;0;0;0;0;5;0;0;0;0;0;0;0;0;6;0;2771;2;0;0;0;0;0;7;0;1785;0;0;0;0;8;0;1805;0;0;0;0;9;0;931;0;0;0;0
28.11.20;22:15:00;1;406;24634;0;2;0;1769;0;0;0;0;3;0;1037;0;0;0;0;4;0;1419;0;0;0;0;5;0;0;0;0;0;0;0;0;6;0;2771;2;0;0;0;0;0;7;0;1785;0;0;0;0;8;0;1805;0;0;0;0;9;0;931;0;0;0;0
28.11.20;22:10:00;1;479;24599;0;2;0;1769;0;0;0;0;3;0;1037;0;0;0;0;4;0;1419;0;0;0;0;5;0;0;0;0;0;0;0;0;6;0;2771;2;0;0;0;0;0;7;0;1785;0;0;0;0;8;0;1805;0;0;0;0;9;0;931;0;0;0;0
28.11.20;22:05:00;1;442;24559;0;2;0;1769;0;0;0;0;3;0;1037;0;0;0;0;4;0;1419;0;0;0;0;5;0;0;0;0;0;0;0;0;6;0;2771;2;0;0;0;0;0;7;0;1785;0;0;0;0;8;0;1805;0;0;0;0;9;0;931;0;0;0;0
28.11.20;22:00:00;1;508;24521;0;2;0;1769;0;0;0;0;3;0;1037;0;0;0;0;4;0;1419;0;0;0;0;5;0;0;0;0;0;0;0;0;6;0;2771;2;0;0;0;0;0;7;0;1785;0;0;0;0;8;0;1805;0;0;0;0;9;0;931;0;0;0;0
28.11.20;21:55:00;1;510;24479;0;2;0;1769;0;0;0;0;3;0;1037;0;0;0;0;4;0;1419;0;0;0;0;5;0;0;0;0;0;0;0;0;6;0;2771;2;0;0;0;0;0;7;0;1785;0;0;0;0;8;0;1805;0;0;0;0;9;0;931;0;0;0;0
28.11.20;21:50:00;1;513;24436;0;2;0;1769;0;0;0;0;3;0;1037;0;0;0;0;4;0;1419;0;0;0;0;5;0;0;0;0;0;0;0;0;6;0;2771;2;0;0;0;0;0;7;0;1785;0;0;0;0;8;0;1805;0;0;0;0;9;0;931;0;0;0;0
28.11.20;21:45:00;1;508;24392;0;2;0;1769;0;0;0;0;3;0;1037;0;0;0;0;4;0;1419;0;0;0;0;5;0;0;0;0;0;0;0;0;6;0;2771;2;0;0;0;0;0;7;0;1785;0;0;0;0;8;0;1805;0;0;0;0;9;0;931;0;0;0;0
28.11.20;21:40:00;1;496;24350;0;2;0;1769;0;0;0;0;3;0;1037;0;0;0;0;4;0;1419;0;0;0;0;5;0;0;0;0;0;0;0;0;6;0;2771;2;0;0;0;0;0;7;0;1785;0;0;0;0;8;0;1805;0;0;0;0;9;0;931;0;0;0;0
28.11.20;21:35:00;1;460;24310;0;2;0;1769;0;0;0;0;3;0;1037;0;0;0;0;4;0;1419;0;0;0;0;5;0;0;0;0;0;0;0;0;6;0;2771;2;0;0;0;0;0;7;0;1785;0;0;0;0;8;0;1805;0;0;0;0;9;0;931;0;0;0;0
28.11.20;21:30:00;1;448;24271;0;2;0;1769;0;0;0;0;3;0;1037;0;0;0;0;4;0;1419;0;0;0;0;5;0;0;0;0;0;0;0;0;6;0;2771;2;0;0;0;0;0;7;0;1785;0;0;0;0;8;0;1805;0;0;0;0;9;0;931;0;0;0;0
28.11.20;21:25:00;1;485;24234;0;2;0;1769;0;0;0;0;3;0;1037;0;0;0;0;4;0;1419;0;0;0;0;5;0;0;0;0;0;0;0;0;6;0;2771;2;0;0;0;0;0;7;0;1785;0;0;0;0;8;0;1805;0;0;0;0;9;0;931;0;0;0;0
28.11.20;21:20:00;1;533;24191;0;2;0;1769;0;0;0;0;3;0;1037;0;0;0;0;4;0;1419;0;0;0;0;5;0;0;0;0;0;0;0;0;6;0;2771;2;0;0;0;0;0;7;0;1785;0;0;0;0;8;0;1805;0;0;0;0;9;0;931;0;0;0;0
28.11.20;21:15:00;1;953;24145;0;2;0;1769;0;0;0;0;3;0;1037;0;0;0;0;4;0;1419;0;0;0;0;5;0;0;0;0;0;0;0;0;6;0;2771;2;0;0;0;0;0;7;0;1785;0;0;0;0;8;0;1805;0;0;0;0;9;0;931;0;0;0;0
28.11.20;21:10:00;1;417;24072;0;2;0;1769;0;0;0;0;3;0;1037;0;0;0;0;4;0;1419;0;0;0;0;5;0;0;0;0;0;0;0;0;6;0;2771;2;0;0;0;0;0;7;0;1785;0;0;0;0;8;0;1805;0;0;0;0;9;0;931;0;0;0;0
28.11.20;21:05:00;1;382;24037;0;2;0;1769;0;0;0;0;3;0;1037;0;0;0;0;4;0;1419;0;0;0;0;5;0;0;0;0;0;0;0;0;6;0;2771;2;0;0;0;0;0;7;0;1785;0;0;0;0;8;0;1805;0;0;0;0;9;0;931;0;0;0;0
28.11.20;21:00:00;1;432;24005;0;2;0;1769;0;0;0;0;3;0;1037;0;0;0;0;4;0;1419;0;0;0;0;5;0;0;0;0;0;0;0;0;6;0;2771;2;0;0;0;0;0;7;0;1785;0;0;0;0;8;0;1805;0;0;0;0;9;0;931;0;0;0;0
28.11.20;20:55:00;1;506;23968;0;2;0;1769;0;0;0;0;3;0;1037;0;0;0;0;4;0;1419;0;0;0;0;5;0;0;0;0;0;0;0;0;6;0;2771;2;0;0;0;0;0;7;0;1785;0;0;0;0;8;0;1805;0;0;0;0;9;0;931;0;0;0;0
28.11.20;20:50:00;1;415;23927;0;2;0;1769;0;0;0;0;3;0;1037;0;0;0;0;4;0;1419;0;0;0;0;5;0;0;0;0;0;0;0;0;6;0;2771;2;0;0;0;0;0;7;0;1785;0;0;0;0;8;0;1805;0;0;0;0;9;0;931;0;0;0;0
28.11.20;20:45:00;1;370;23893;0;2;0;1769;0;0;0;0;3;0;1037;0;0;0;0;4;0;1419;0;0;0;0;5;0;0;0;0;0;0;0;0;6;0;2771;2;0;0;0;0;0;7;0;1785;0;0;0;0;8;0;1805;0;0;0;0;9;0;931;0;0;0;0
28.11.20;20:40:00;1;376;23862;0;2;0;1769;0;0;0;0;3;0;1037;0;0;0;0;4;0;1419;0;0;0;0;5;0;0;0;0;0;0;0;0;6;0;2771;2;0;0;0;0;0;7;0;1785;0;0;0;0;8;0;1805;0;0;0;0;9;0;931;0;0;0;0
28.11.20;20:35:00;1;380;23831;0;2;0;1769;0;0;0;0;3;0;1037;0;0;0;0;4;0;1419;0;0;0;0;5;0;0;0;0;0;0;0;0;6;0;2771;2;0;0;0;0;0;7;0;1785;0;0;0;0;8;0;1805;0;0;0;0;9;0;931;0;0;0;0
28.11.20;20:30:00;1;330;23799;0;2;0;1769;0;0;0;0;3;0;1037;0;0;0;0;4;0;1419;0;0;0;0;5;0;0;0;0;0;0;0;0;6;0;2771;2;0;0;0;0;0;7;0;1785;0;0;0;0;8;0;1805;0;0;0;0;9;0;931;0;0;0;0
28.11.20;20:25:00;1;384;23772;0;2;0;1769;0;0;0;0;3;0;1037;0;0;0;0;4;0;1419;0;0;0;0;5;0;0;0;0;0;0;0;0;6;0;2771;2;0;0;0;0;0;7;0;1785;0;0;0;0;8;0;1805;0;0;0;0;9;0;931;0;0;0;0
28.11.20;20:20:00;1;333;23739;0;2;0;1769;0;0;0;0;3;0;1037;0;0;0;0;4;0;1419;0;0;0;0;5;0;0;0;0;0;0;0;0;6;0;2771;2;0;0;0;0;0;7;0;1785;0;0;0;0;8;0;1805;0;0;0;0;9;0;931;0;0;0;0
28.11.20;20:15:00;1;330;23712;0;2;0;1769;0;0;0;0;3;0;1037;0;0;0;0;4;0;1419;0;0;0;0;5;0;0;0;0;0;0;0;0;6;0;2771;2;0;0;0;0;0;7;0;1785;0;0;0;0;8;0;1805;0;0;0;0;9;0;931;0;0;0;0
28.11.20;20:10:00;1;333;23684;0;2;0;1769;0;0;0;0;3;0;1037;0;0;0;0;4;0;1419;0;0;0;0;5;0;0;0;0;0;0;0;0;6;0;2771;2;0;0;0;0;0;7;0;1785;0;0;0;0;8;0;1805;0;0;0;0;9;0;931;0;0;0;0
28.11.20;20:05:00;1;362;23656;0;2;0;1769;0;0;0;0;3;0;1037;0;0;0;0;4;0;1419;0;0;0;0;5;0;0;0;0;0;0;0;0;6;0;2771;2;0;0;0;0;0;7;0;1785;0;0;0;0;8;0;1805;0;0;0;0;9;0;931;0;0;0;0
28.11.20;20:00:00;1;401;23625;0;2;0;1769;0;0;0;0;3;0;1037;0;0;0;0;4;0;1419;0;0;0;0;5;0;0;0;0;0;0;0;0;6;0;2771;2;0;0;0;0;0;7;0;1785;0;0;0;0;8;0;1805;0;0;0;0;9;0;931;0;0;0;0
28.11.20;19:55:00;1;458;23592;0;2;0;1769;0;0;0;0;3;0;1037;0;0;0;0;4;0;1419;0;0;0;0;5;0;0;0;0;0;0;0;0;6;0;2771;2;0;0;0;0;0;7;0;1785;0;0;0;0;8;0;1805;0;0;0;0;9;0;931;0;0;0;0
28.11.20;19:50:00;1;396;23555;0;2;0;1769;0;0;0;0;3;0;1037;0;0;0;0;4;0;1419;0;0;0;0;5;0;0;0;0;0;0;0;0;6;0;2771;2;0;0;0;0;0;7;0;1785;0;0;0;0;8;0;1805;0;0;0;0;9;0;931;0;0;0;0
28.11.20;19:45:00;1;439;23521;0;2;0;1769;0;0;0;0;3;0;1037;0;0;0;0;4;0;1419;0;0;0;0;5;0;0;0;0;0;0;0;0;6;0;2771;2;0;0;0;0;0;7;0;1785;0;0;0;0;8;0;1805;0;0;0;0;9;0;931;0;0;0;0
28.11.20;19:40:00;1;432;23484;0;2;0;1769;0;0;0;0;3;0;1037;0;0;0;0;4;0;1419;0;0;0;0;5;0;0;0;0;0;0;0;0;6;0;2771;2;0;0;0;0;0;7;0;1785;0;0;0;0;8;0;1805;0;0;0;0;9;0;931;0;0;0;0
28.11.20;19:35:00;1;380;23449;0;2;0;1769;0;0;0;0;3;0;1037;0;0;0;0;4;0;1419;0;0;0;0;5;0;0;0;0;0;0;0;0;6;0;2771;2;0;0;0;0;0;7;0;1785;0;0;0;0;8;0;1805;0;0;0;0;9;0;931;0;0;0;0
28.11.20;19:30:00;1;385;23417;0;2;0;1769;0;0;0;0;3;0;1037;0;0;0;0;4;0;1419;0;0;0;0;5;0;0;0;0;0;0;0;0;6;0;2771;2;0;0;0;0;0;7;0;1785;0;0;0;0;8;0;1805;0;0;0;0;9;0;931;0;0;0;0
28.11.20;19:25:00;1;418;23384;0;2;0;1769;0;0;0;0;3;0;1037;0;0;0;0;4;0;1419;0;0;0;0;5;0;0;0;0;0;0;0;0;6;0;2771;2;0;0;0;0;0;7;0;1785;0;0;0;0;8;0;1805;0;0;0;0;9;0;931;0;0;0;0
28.11.20;19:20:00;1;380;23350;0;2;0;1769;0;0;0;0;3;0;1037;0;0;0;0;4;0;1419;0;0;0;0;5;0;0;0;0;0;0;0;0;6;0;2771;2;0;0;0;0;0;7;0;1785;0;0;0;0;8;0;1805;0;0;0;0;9;0;931;0;0;0;0
28.11.20;19:15:00;1;338;23319;0;2;0;1769;0;0;0;0;3;0;1037;0;0;0;0;4;0;1419;0;0;0;0;5;0;0;0;0;0;0;0;0;6;0;2771;2;0;0;0;0;0;7;0;1785;0;0;0;0;8;0;1805;0;0;0;0;9;0;931;0;0;0;0
28.11.20;19:10:00;1;349;23291;0;2;0;1769;0;0;0;0;3;0;1037;0;0;0;0;4;0;1419;0;0;0;0;5;0;0;0;0;0;0;0;0;6;0;2771;2;0;0;0;0;0;7;0;1785;0;0;0;0;8;0;1805;0;0;0;0;9;0;931;0;0;0;0
28.11.20;19:05:00;1;551;23261;0;2;0;1769;0;0;0;0;3;0;1037;0;0;0;0;4;0;1419;0;0;0;0;5;0;0;0;0;0;0;0;0;6;0;2771;2;0;0;0;0;0;7;0;1785;0;0;0;0;8;0;1805;0;0;0;0;9;0;931;0;0;0;0
28.11.20;19:00:00;1;1189;23214;0;2;0;1769;0;0;0;0;3;0;1037;0;0;0;0;4;0;1419;0;0;0;0;5;0;0;0;0;0;0;0;0;6;0;2771;2;0;0;0;0;0;7;0;1785;0;0;0;0;8;0;1805;0;0;0;0;9;0;931;0;0;0;0
28.11.20;18:55:00;1;862;23113;0;2;0;1769;0;0;0;0;3;0;1037;0;0;0;0;4;0;1419;0;0;0;0;5;0;0;0;0;0;0;0;0;6;0;2771;2;0;0;0;0;0;7;0;1785;0;0;0;0;8;0;1805;0;0;0;0;9;0;931;0;0;0;0
28.11.20;18:50:00;1;875;23041;0;2;0;1769;0;0;0;0;3;0;1037;0;0;0;0;4;0;1419;0;0;0;0;5;0;0;0;0;0;0;0;0;6;0;2771;2;0;0;0;0;0;7;0;1785;0;0;0;0;8;0;1805;0;0;0;0;9;0;931;0;0;0;0
28.11.20;18:45:00;1;890;22967;0;2;0;1769;0;0;0;0;3;0;1037;0;0;0;0;4;0;1419;0;0;0;0;5;0;0;0;0;0;0;0;0;6;0;2771;2;0;0;0;0;0;7;0;1785;0;0;0;0;8;0;1805;0;0;0;0;9;0;931;0;0;0;0
28.11.20;18:40:00;1;921;22893;0;2;0;1769;0;0;0;0;3;0;1037;0;0;0;0;4;0;1419;0;0;0;0;5;0;0;0;0;0;0;0;0;6;0;2771;2;0;0;0;0;0;7;0;1785;0;0;0;0;8;0;1805;0;0;0;0;9;0;931;0;0;0;0
28.11.20;18:35:00;1;922;22816;0;2;0;1769;0;0;0;0;3;0;1037;0;0;0;0;4;0;1419;0;0;0;0;5;0;0;0;0;0;0;0;0;6;0;2771;2;0;0;0;0;0;7;0;1785;0;0;0;0;8;0;1805;0;0;0;0;9;0;931;0;0;0;0
28.11.20;18:30:00;1;934;22741;0;2;0;1769;0;0;0;0;3;0;1037;0;0;0;0;4;0;1419;0;0;0;0;5;0;0;0;0;0;0;0;0;6;0;2771;2;0;0;0;0;0;7;0;1785;0;0;0;0;8;0;1805;0;0;0;0;9;0;931;0;0;0;0
28.11.20;18:25:00;1;2126;22659;0;2;0;1769;0;0;0;0;3;0;1037;0;0;0;0;4;0;1419;0;0;0;0;5;0;0;0;0;0;0;0;0;6;0;2771;2;0;0;0;0;0;7;0;1785;0;0;0;0;8;0;1805;0;0;0;0;9;0;931;0;0;0;0
28.11.20;18:20:00;1;954;22517;0;2;0;1769;0;0;0;0;3;0;1037;0;0;0;0;4;0;1419;0;0;0;0;5;0;0;0;0;0;0;0;0;6;0;2771;2;0;0;0;0;0;7;0;1785;0;0;0;0;8;0;1805;0;0;0;0;9;0;931;0;0;0;0
28.11.20;18:15:00;1;853;22441;0;2;0;1769;0;0;0;0;3;0;1037;0;0;0;0;4;0;1419;0;0;0;0;5;0;0;0;0;0;0;0;0;6;0;2771;2;0;0;0;0;0;7;0;1785;0;0;0;0;8;0;1805;0;0;0;0;9;0;931;0;0;0;0
28.11.20;18:10:00;1;911;22368;0;2;0;1769;0;0;0;0;3;0;1037;0;0;0;0;4;0;1419;0;0;0;0;5;0;0;0;0;0;0;0;0;6;0;2771;2;0;0;0;0;0;7;0;1785;0;0;0;0;8;0;1805;0;0;0;0;9;0;931;0;0;0;0
28.11.20;18:05:00;1;903;22292;0;2;0;1769;0;0;0;0;3;0;1037;0;0;0;0;4;0;1419;0;0;0;0;5;0;0;0;0;0;0;0;0;6;0;2771;2;0;0;0;0;0;7;0;1785;0;0;0;0;8;0;1805;0;0;0;0;9;0;931;0;0;0;0
28.11.20;18:00:00;1;1480;22171;0;2;0;1769;0;0;0;0;3;0;1037;0;0;0;0;4;0;1419;0;0;0;0;5;0;0;0;0;0;0;0;0;6;0;2771;2;0;0;0;0;0;7;0;1785;0;0;0;0;8;0;1805;0;0;0;0;9;0;931;0;0;0;0
28.11.20;17:55:00;1;866;22060;0;2;0;1769;0;0;0;0;3;0;1037;0;0;0;0;4;0;1419;0;0;0;0;5;0;0;0;0;0;0;0;0;6;0;2771;2;0;0;0;0;0;7;0;1785;0;0;0;0;8;0;1805;0;0;0;0;9;0;931;0;0;0;0
28.11.20;17:50:00;1;924;21987;0;2;0;1769;0;0;0;0;3;0;1037;0;0;0;0;4;0;1419;0;0;0;0;5;0;0;0;0;0;0;0;0;6;0;2771;2;0;0;0;0;0;7;0;1785;0;0;0;0;8;0;1805;0;0;0;0;9;0;931;0;0;0;0
28.11.20;17:45:00;1;926;21910;0;2;0;1769;0;0;0;0;3;0;1037;0;0;0;0;4;0;1419;0;0;0;0;5;0;0;0;0;0;0;0;0;6;0;2771;2;0;0;0;0;0;7;0;1785;0;0;0;0;8;0;1805;0;0;0;0;9;0;931;0;0;0;0
28.11.20;17:40:00;1;3136;21784;0;2;0;1769;0;0;0;0;3;0;1037;0;0;0;0;4;0;1419;0;0;0;0;5;0;0;0;0;0;0;0;0;6;0;2771;2;0;0;0;0;0;7;0;1785;0;0;0;0;8;0;1805;0;0;0;0;9;0;931;0;0;0;0
28.11.20;17:35:00;1;3190;21511;0;2;0;1769;0;0;0;0;3;0;1037;0;0;0;0;4;0;1419;0;0;0;0;5;0;0;0;0;0;0;0;0;6;0;2771;2;0;0;0;0;0;7;0;1785;0;0;0;0;8;0;1805;0;0;0;0;9;0;931;0;0;0;0
28.11.20;17:30:00;1;2998;21247;0;2;0;1769;0;0;0;0;3;0;1037;0;0;0;0;4;0;1419;0;0;0;0;5;0;0;0;0;0;0;0;0;6;0;2771;2;0;0;0;0;0;7;0;1785;0;0;0;0;8;0;1805;0;0;0;0;9;0;931;0;0;0;0
28.11.20;17:25:00;1;2935;20994;0;2;0;1769;0;0;0;0;3;0;1037;0;0;0;0;4;0;1419;0;0;0;0;5;0;0;0;0;0;0;0;0;6;0;2771;2;0;0;0;0;0;7;0;1785;0;0;0;0;8;0;1805;0;0;0;0;9;0;931;0;0;0;0
28.11.20;17:20:00;1;2131;20748;0;2;0;1769;0;0;0;0;3;0;1037;0;0;0;0;4;0;1419;0;0;0;0;5;0;0;0;0;0;0;0;0;6;0;2771;2;0;0;0;0;0;7;0;1785;0;0;0;0;8;0;1805;0;0;0;0;9;0;931;0;0;0;0
28.11.20;17:15:00;1;906;20594;0;2;0;1769;0;0;0;0;3;0;1037;0;0;0;0;4;0;1419;0;0;0;0;5;0;0;0;0;0;0;0;0;6;0;2771;2;0;0;0;0;0;7;0;1785;0;0;0;0;8;0;1805;0;0;0;0;9;0;931;0;0;0;0
28.11.20;17:10:00;1;553;20544;0;2;0;1769;0;0;0;0;3;0;1037;0;0;0;0;4;0;1419;0;0;0;0;5;0;0;0;0;0;0;0;0;6;0;2771;2;0;0;0;0;0;7;0;1785;0;0;0;0;8;0;1805;0;0;0;0;9;0;931;0;0;0;0
28.11.20;17:05:00;1;564;20498;0;2;0;1769;0;0;0;0;3;0;1037;0;0;0;0;4;0;1419;0;0;0;0;5;0;0;0;0;0;0;0;0;6;0;2771;2;0;0;0;0;0;7;0;1785;0;0;0;0;8;0;1805;0;0;0;0;9;0;931;0;0;0;0
28.11.20;17:00:00;1;744;20444;0;2;0;1769;0;0;0;0;3;0;1037;0;0;0;0;4;0;1419;0;0;0;0;5;0;0;0;0;0;0;0;0;6;0;2771;2;0;0;0;0;0;7;0;1785;0;0;0;0;8;0;1805;0;0;0;0;9;0;931;0;0;0;0
28.11.20;16:55:00;1;724;20382;0;2;0;1769;0;0;0;0;3;0;1037;0;0;0;0;4;0;1419;0;0;0;0;5;0;0;0;0;0;0;0;0;6;0;2771;2;0;0;0;0;0;7;0;1785;0;0;0;0;8;0;1805;0;0;0;0;9;0;931;0;0;0;0
28.11.20;16:50:00;1;1431;20320;0;2;0;1769;0;0;0;0;3;0;1037;0;0;0;0;4;0;1419;0;0;0;0;5;0;0;0;0;0;0;0;0;6;0;2771;2;0;0;0;0;0;7;0;1785;0;0;0;0;8;0;1805;0;0;0;0;9;0;931;0;0;0;0
28.11.20;16:45:00;1;848;20219;0;2;0;1769;0;0;0;0;3;0;1037;0;0;0;0;4;0;1419;0;0;0;0;5;0;0;0;0;0;0;0;0;6;0;2771;2;0;0;0;0;0;7;0;1785;0;0;0;0;8;0;1805;0;0;0;0;9;0;931;0;0;0;0
28.11.20;16:40:00;1;896;20148;0;2;0;1769;0;0;0;0;3;0;1037;0;0;0;0;4;0;1419;0;0;0;0;5;0;0;0;0;0;0;0;0;6;0;2771;2;0;0;0;0;0;7;0;1785;0;0;0;0;8;0;1805;0;0;0;0;9;0;931;0;0;0;0
28.11.20;16:35:00;1;1546;20064;0;2;0;1769;0;0;42;1;3;0;1037;0;0;223;9;4;0;1419;0;0;0;0;5;0;0;0;0;0;0;0;0;6;0;2771;2;0;0;0;0;0;7;0;1785;0;0;0;0;8;0;1805;0;0;0;0;9;0;931;0;0;0;0
28.11.20;16:30:00;1;4153;19919;0;2;0;1769;6;0;284;8;3;0;1037;6;0;307;11;4;0;1419;0;0;19;1;5;0;0;0;0;0;0;0;0;6;0;2771;0;0;0;0;0;0;7;0;1785;0;0;0;0;8;0;1805;0;0;0;0;9;0;931;0;0;0;0
28.11.20;16:25:00;1;4407;19492;0;2;0;1769;6;0;308;8;3;0;1037;6;0;359;11;4;0;1419;2;0;82;6;5;0;0;0;0;0;0;0;0;6;0;2771;0;0;0;0;0;0;7;0;1785;0;0;0;0;8;0;1805;0;0;0;0;9;0;931;0;0;0;0
28.11.20;16:20:00;1;3721;19090;0;2;0;1769;6;0;345;8;3;0;1037;6;0;419;11;4;0;1419;1;0;116;6;5;0;0;0;0;0;0;0;0;6;0;2771;2;7;2;167;382;18;7;0;1785;0;0;128;5;8;0;1805;0;0;172;6;9;0;931;6;0;271;7
28.11.20;16:15:00;1;3680;18779;0;2;0;1769;6;0;355;8;3;0;1037;3;1;416;11;4;0;1419;1;0;128;6;5;0;0;0;0;0;0;0;0;6;0;2771;23;7;3;342;335;19;7;0;1785;6;0;259;11;8;0;1805;6;0;265;11;9;0;931;6;0;286;7
28.11.20;16:10:00;1;3878;18471;0;2;0;1769;6;0;375;8;3;0;1037;6;1;451;11;4;0;1419;1;0;157;7;5;0;0;0;0;0;0;0;0;6;0;2771;23;5;3;298;422;19;7;0;1785;6;0;323;11;8;0;1805;6;0;329;11;9;0;931;6;0;343;7
28.11.20;16:05:00;1;3916;18145;0;2;0;1769;6;0;399;8;3;0;1037;6;3;486;11;4;0;1419;1;0;206;7;5;0;0;0;0;0;0;0;0;6;0;2771;23;7;3;239;578;20;7;0;1785;6;0;402;11;8;0;1805;6;0;389;11;9;0;931;6;0;410;7
28.11.20;16:00:00;1;3888;17810;0;2;1;1769;6;4;406;8;3;2;1037;6;3;508;12;4;0;1419;3;0;211;7;5;0;0;0;0;0;0;0;0;6;0;2771;23;4;2;512;597;20;7;0;1785;6;1;435;11;8;0;1805;6;1;442;11;9;0;931;6;0;487;7
28.11.20;15:55:00;1;3948;17486;0;2;1;1769;6;4;411;8;3;2;1036;6;4;516;12;4;0;1419;3;0;220;7;5;0;0;0;0;0;0;0;0;6;0;2771;8;4;5;585;602;21;7;0;1785;6;3;435;11;8;1;1805;6;1;453;11;9;2;931;3;3;478;8
28.11.20;15:50:00;1;3695;17163;0;2;2;1769;6;6;414;8;3;0;1036;6;0;543;12;4;0;1419;3;0;228;8;5;0;0;0;0;0;0;0;0;6;59;2770;4;26;31;477;455;22;7;0;1785;6;0;484;11;8;0;1805;6;0;489;11;9;0;931;6;2;515;8
28.11.20;15:45:00;1;3705;16856;0;2;5;1769;6;10;423;9;3;1;1036;4;5;534;12;4;6;1419;3;6;200;8;5;0;0;0;0;0;0;0;0;6;83;2765;4;39;42;477;455;22;7;2;1785;3;4;488;12;8;0;1805;3;4;490;11;9;0;931;6;4;539;8
28.11.20;15:40:00;1;3774;16521;0;2;24;1768;6;36;398;9;3;3;1036;3;8;540;12;4;16;1418;3;17;200;8;5;0;0;0;0;0;0;0;0;6;97;2757;4;49;59;477;455;22;7;3;1785;6;7;494;12;8;5;1805;6;8;495;11;9;1;931;6;5;546;8
28.11.20;15:35:00;1;3661;16208;0;2;5;1767;6;9;425;9;3;2;1036;6;6;537;12;4;5;1417;3;5;200;8;5;0;0;0;0;0;0;0;0;6;87;2749;4;42;47;478;455;21;7;2;1785;6;5;485;12;8;0;1804;6;6;489;11;9;0;931;6;4;537;8
28.11.20;15:30:00;1;4168;15906;0;2;4;1766;6;8;415;9;3;0;1036;6;5;524;12;4;0;1417;3;0;227;8;5;0;0;0;0;0;0;0;0;6;13;2742;4;11;12;576;584;21;7;2;1784;6;4;470;12;8;0;1804;6;4;473;11;9;0;930;6;0;544;8
28.11.20;15:25:00;1;3819;15560;0;2;2;1766;6;5;417;9;3;0;1036;6;4;524;12;4;0;1417;3;0;206;8;5;0;0;0;0;0;0;0;0;6;53;2741;4;28;25;446;350;22;7;2;1784;6;2;457;12;8;2;1804;6;2;468;12;9;1;930;3;1;513;8
28.11.20;15:20:00;1;3717;15245;0;2;10;1766;4;17;409;9;3;1;1036;6;5;533;12;4;4;1417;3;4;199;8;5;0;0;0;0;0;0;0;0;6;68;2736;4;39;32;446;350;22;7;0;1784;6;0;501;12;8;0;1804;6;0;503;12;9;0;930;6;3;531;8
28.11.20;15:15:00;1;3898;14934;0;2;9;1765;3;17;408;9;3;2;1036;4;6;530;12;4;2;1416;3;2;199;8;5;0;0;0;0;0;0;0;0;6;68;2730;4;26;22;446;350;22;7;0;1784;4;6;486;12;8;2;1804;4;7;488;12;9;1;930;6;4;537;8
28.11.20;15:10:00;1;4053;14609;0;2;24;1764;6;37;401;9;3;10;1035;3;23;487;12;4;10;1416;3;11;199;8;5;0;0;0;0;0;0;0;0;6;77;2724;4;50;43;446;350;22;7;13;1784;6;20;465;12;8;14;1804;6;21;466;12;9;1;930;6;5;546;8
28.11.20;15:05:00;1;3891;14262;0;2;63;1762;4;88;377;10;3;3;1035;6;9;547;12;4;23;1415;3;24;198;8;5;0;0;0;0;0;0;0;0;6;102;2718;4;61;51;446;350;22;7;8;1783;3;10;505;13;8;6;1803;3;10;506;12;9;4;930;6;8;557;8
28.11.20;15:00:00;1;3898;13938;0;2;56;1757;4;84;389;10;3;10;1034;6;19;520;12;4;18;1413;3;19;198;8;5;0;0;0;0;0;0;0;0;6;97;2709;4;46;39;446;350;22;7;23;1782;6;31;438;13;8;21;1802;6;33;442;12;9;0;930;6;0;577;8
28.11.20;14:55:00;1;4398;13612;0;2;64;1752;4;89;382;10;3;6;1034;6;11;547;12;4;21;1412;3;22;198;8;5;0;0;0;0;0;0;0;0;6;105;2701;4;53;42;446;350;22;7;7;1780;4;12;497;13;8;14;1801;4;26;476;13;9;4;930;4;7;555;8
28.11.20;14:50:00;1;4663;13240;0;2;69;1747;4;97;392;10;3;9;1033;6;17;531;12;4;36;1410;3;37;198;8;5;0;0;0;0;0;0;0;0;6;111;2692;4;55;49;446;350;22;7;51;1780;4;79;399;13;8;48;1799;4;80;405;13;9;4;929;6;7;561;8
28.11.20;14:45:00;1;4106;12855;0;2;84;1741;4;111;371;10;3;6;1032;6;11;550;12;4;41;1407;3;43;198;8;5;0;0;0;0;0;0;0;0;6;125;2682;4;68;55;446;350;22;7;52;1775;4;75;436;13;8;57;1795;4;92;422;13;9;6;929;6;9;563;8
28.11.20;14:40:00;1;1336;12589;0;2;62;1734;4;89;383;10;3;13;1032;3;26;507;12;4;24;1404;3;24;198;8;5;0;0;0;0;0;0;0;0;6;107;2672;4;54;47;446;350;22;7;21;1771;6;39;429;13;8;39;1791;4;65;365;13;9;1;929;6;6;559;9
28.11.20;14:35:00;1;3192;12478;0;2;81;1728;4;106;382;10;3;13;1031;6;23;527;12;4;43;1402;3;45;198;8;5;0;0;0;0;0;0;0;0;6;121;2663;4;70;59;446;350;22;7;46;1770;4;74;324;10;8;61;1787;4;89;392;13;9;5;928;6;9;563;9
28.11.20;14:30:00;1;4277;12117;0;2;75;1722;4;99;371;10;3;6;1029;6;11;552;12;4;29;1398;3;30;198;8;5;0;0;0;0;0;0;0;0;6;114;2653;4;60;49;446;350;21;7;47;1765;4;74;355;13;8;51;1782;4;76;358;13;9;4;928;6;8;559;9
28.11.20;14:25:00;1;4338;11756;0;2;81;1715;4;108;379;10;3;8;1029;6;14;549;13;4;44;1396;3;46;198;8;5;0;0;0;0;0;0;0;0;6;121;2643;4;65;54;446;350;21;7;58;1761;4;87;376;13;8;57;1778;4;87;402;13;9;4;928;4;8;554;9
28.11.20;14:20:00;1;4605;11401;0;2;72;1709;4;98;381;10;3;6;1028;6;12;552;13;4;24;1392;3;25;198;8;5;0;0;0;0;0;0;0;0;6;115;2633;4;63;53;446;351;21;7;53;1756;4;79;363;13;8;48;1773;4;81;374;13;9;9;927;3;16;531;9
28.11.20;14:15:00;1;4142;11022;0;2;71;1703;4;99;384;10;3;0;1028;6;0;575;13;4;36;1390;3;37;198;8;5;0;0;0;0;0;0;0;0;6;113;2623;4;66;55;446;350;21;7;52;1752;4;83;439;13;8;54;1769;4;87;441;13;9;6;926;6;10;204;3
28.11.20;14:10:00;1;3657;10663;0;2;96;1697;4;122;380;10;3;17;1028;3;28;540;13;4;51;1387;3;53;198;8;5;0;0;0;0;0;0;0;0;6;137;2614;4;79;63;446;350;21;7;70;1747;4;101;425;14;8;69;1765;4;99;430;13;9;6;925;6;10;565;9
28.11.20;14:05:00;1;3663;10357;0;2;130;1689;4;159;384;11;3;74;1026;4;109;483;13;4;79;1383;3;83;198;9;5;0;0;0;0;0;0;0;0;6;175;2602;4;105;82;446;350;21;7;106;1742;4;140;415;14;8;100;1759;4;139;476;13;9;21;925;6;27;547;9
28.11.20;14:00:00;1;3609;10053;0;2;122;1678;4;151;380;11;3;11;1020;4;17;566;13;4;74;1376;3;77;198;9;5;0;0;0;0;0;0;0;0;6;167;2587;4;89;71;446;355;21;7;97;1733;4;133;422;14;8;90;1751;4;129;470;13;9;9;923;6;14;572;9
28.11.20;13:55:00;1;3579;9753;0;2;164;1668;4;194;386;11;3;93;1018;4;129;516;14;4;120;1370;3;125;225;9;5;0;0;0;0;0;0;0;0;6;264;2573;4;126;145;475;514;21;7;146;1725;4;181;445;14;8;151;1743;4;182;455;13;9;71;923;6;92;501;10
28.11.20;13:50:00;1;3706;9424;0;2;241;1654;4;270;393;11;3;144;1011;4;179;517;14;4;192;1360;5;200;233;9;5;0;0;0;0;0;0;0;0;6;402;2550;4;189;201;584;566;21;7;214;1713;4;256;463;14;8;220;1730;4;258;466;13;9;119;917;4;146;515;10
28.11.20;13:45:00;1;4114;9102;0;2;243;1634;4;275;394;11;3;145;999;4;183;526;14;4;192;1344;5;200;233;9;5;0;0;0;0;0;0;0;0;6;401;2516;4;208;224;579;572;21;7;202;1695;4;244;454;14;8;206;1712;4;246;463;13;9;114;907;4;138;512;10
28.11.20;13:40:00;1;4430;8779;0;2;309;1613;4;344;397;11;3;191;986;4;230;515;14;4;253;1328;5;263;238;9;5;0;0;0;0;0;0;0;0;6;503;2482;4;256;268;589;575;21;7;272;1678;4;326;487;14;8;295;1695;4;336;476;13;9;159;897;4;190;528;10
28.11.20;13:35:00;1;4024;8425;0;2;354;1588;4;388;406;11;3;217;971;4;258;519;14;4;287;1307;5;299;240;9;5;0;0;0;0;0;0;0;0;6;553;2440;4;276;291;597;572;21;7;341;1656;4;384;469;14;8;351;1670;4;387;480;13;9;189;884;4;218;530;10
28.11.20;13:30:00;1;3690;8067;0;2;389;1558;4;426;417;11;3;247;953;4;287;517;14;4;331;1283;5;345;239;9;5;0;0;0;0;0;0;0;0;6;628;2393;4;322;331;603;577;21;7;363;1627;4;406;486;14;8;383;1641;4;418;492;13;9;205;868;4;236;528;10
28.11.20;13:25:00;1;3624;7760;0;2;376;1526;4;414;414;11;3;232;932;4;274;521;14;4;316;1255;5;329;241;9;5;0;0;0;0;0;0;0;0;6;600;2341;4;301;311;595;579;21;7;362;1597;4;390;490;14;8;363;1609;4;401;482;13;9;196;851;4;227;527;10
28.11.20;13:20:00;1;3598;7457;0;2;396;1494;4;434;414;11;3;247;913;4;290;523;14;4;336;1229;5;350;242;9;5;0;0;0;0;0;0;0;0;6;668;2290;4;336;352;602;582;21;7;394;1567;4;429;477;14;8;367;1579;4;433;486;13;9;212;835;4;242;530;10